EW8073 Weather Reports


Display with metric or nautical units.
time (UTC)temp
F
wind
direction
speed
MPH
gust
MPH
rain 1hr
in
rain 24hr
in
rain mn
in
humidity
%
barometer
mb
20260507085807 35 233 0.0 0.0 0.00 0.00 0.00 78 1015.2
20260507085301 35 233 0.0 2.0 0.00 0.00 0.00 79 1015.1
20260507084754 35 233 0.0 2.0 0.00 0.00 0.00 79 1015.0
20260507084248 35 233 0.0 1.0 0.00 0.00 0.00 80 1015.1
20260507083742 35 233 0.0 3.0 0.00 0.00 0.00 80 1015.1
20260507083236 35 233 0.0 3.0 0.00 0.00 0.00 81 1015.0
20260507082730 35 238 0.0 0.0 0.00 0.00 0.00 82 1015.1
20260507082224 35 238 0.0 0.0 0.00 0.00 0.00 82 1015.2
20260507081719 35 238 0.0 0.0 0.00 0.00 0.00 83 1015.3
20260507081212 34 238 0.0 0.0 0.00 0.00 0.00 83 1015.2
20260507080200 34 238 0.0 0.0 0.00 0.00 0.00 83 1015.5
20260507075654 34 238 0.0 0.0 0.00 0.00 0.00 83 1015.5
20260507074642 34 238 0.0 0.0 0.00 0.00 0.00 84 1015.5
20260507074134 34 238 0.0 0.0 0.00 0.00 0.00 84 1015.5
20260507073134 35 238 0.0 2.0 0.00 0.00 0.00 84 1015.9
20260507072631 35 238 0.0 3.0 0.00 0.00 0.00 84 1015.8
20260507072130 34 238 1.0 4.0 0.00 0.00 0.00 84 1015.9
20260507071631 34 236 1.0 4.0 0.00 0.00 0.00 84 1015.8
20260507070129 34 239 1.0 4.0 0.00 0.00 0.00 85 1016.0
20260507065638 34 229 1.0 3.0 0.00 0.00 0.00 85 1016.0
20260507065129 34 228 0.0 3.0 0.00 0.00 0.00 85 1016.0
20260507064631 34 228 0.0 2.0 0.00 0.00 0.00 84 1016.0
20260507064125 34 228 0.0 3.0 0.00 0.00 0.00 85 1016.0
20260507063626 34 228 0.0 3.0 0.00 0.00 0.00 84 1016.0
20260507060628 34 227 0.0 4.0 0.00 0.00 0.00 84 1016.2
20260507055620 34 225 0.0 0.0 0.00 0.00 0.00 83 1016.2
20260507055114 34 225 0.0 0.0 0.00 0.00 0.00 83 1016.2
20260507053556 34 225 0.0 0.0 0.00 0.00 0.00 82 1016.4
20260507053049 33 225 0.0 0.0 0.00 0.00 0.00 82 1016.5
20260507052545 33 225 0.0 0.0 0.00 0.00 0.00 81 1016.6
20260507052038 33 225 0.0 0.0 0.00 0.00 0.00 81 1016.6
20260507051532 33 225 0.0 0.0 0.00 0.00 0.00 80 1016.7
20260507051026 33 225 0.0 0.0 0.00 0.00 0.00 80 1016.7
20260507050519 33 225 0.0 0.0 0.00 0.00 0.00 80 1016.7
20260507050014 33 225 0.0 0.0 0.00 0.00 0.00 80 1016.8
20260507045509 33 225 0.0 0.0 0.00 0.00 0.00 80 1016.8
20260507045002 33 225 0.0 0.0 0.00 0.00 0.00 79 1016.7
20260507044455 33 225 0.0 0.0 0.00 0.00 0.00 79 1016.9
20260507043950 34 225 0.0 0.0 0.00 0.00 0.00 79 1016.9
20260507043444 34 225 0.0 0.0 0.00 0.00 0.00 78 1016.9
20260507042938 34 225 0.0 0.0 0.00 0.00 0.00 78 1016.8
20260507042433 34 225 0.0 0.0 0.00 0.00 0.00 77 1016.8
20260507041420 34 225 0.0 0.0 0.00 0.00 0.00 76 1016.8
20260507040914 34 225 0.0 0.0 0.00 0.00 0.00 76 1016.8
20260507040409 35 225 0.0 0.0 0.00 0.00 0.00 76 1016.9
20260507035907 35 225 0.0 0.0 0.00 0.00 0.00 76 1017.2
20260507035408 35 225 0.0 0.0 0.00 0.00 0.00 76 1017.1
20260507034406 35 225 0.0 0.0 0.00 0.00 0.00 76 1017.1
20260507033903 35 225 0.0 0.0 0.00 0.00 0.00 76 1017.1
20260507033404 36 225 0.0 0.0 0.00 0.00 0.00 76 1016.9
20260507031901 36 225 0.0 0.0 0.00 0.00 0.00 76 1016.9
20260507030903 36 225 0.0 0.0 0.00 0.00 0.00 76 1016.9
20260507030400 36 225 0.0 0.0 0.00 0.00 0.00 75 1016.8
20260507025401 37 225 0.0 0.0 0.00 0.00 0.00 75 1016.8
20260507024901 37 225 0.0 0.0 0.00 0.00 0.00 75 1016.8
20260507024401 37 225 0.0 0.0 0.00 0.00 0.00 74 1016.7
20260507023858 37 225 0.0 0.0 0.00 0.00 0.00 74 1016.7
20260507022900 38 225 0.0 0.0 0.00 0.00 0.00 74 1016.6
20260507021900 38 225 0.0 0.0 0.00 0.00 0.00 73 1016.6
20260507021359 38 225 0.0 0.0 0.00 0.00 0.00 72 1016.6
20260507020859 38 225 0.0 0.0 0.00 0.00 0.00 72 1016.6
20260507020400 38 225 0.0 0.0 0.00 0.00 0.00 72 1016.6
20260507015859 39 225 0.0 0.0 0.00 0.00 0.00 71 1016.5
20260507015358 39 225 0.0 0.0 0.00 0.00 0.00 71 1016.5
20260507014859 39 225 0.0 0.0 0.00 0.00 0.00 71 1016.5
20260507014358 39 225 0.0 0.0 0.00 0.00 0.00 70 1016.5
20260507013858 39 225 0.0 0.0 0.00 0.00 0.00 70 1016.5
20260507012858 40 225 0.0 0.0 0.00 0.00 0.00 69 1016.6
20260507012359 40 225 0.0 0.0 0.00 0.00 0.00 69 1016.6
20260507011858 40 225 0.0 0.0 0.00 0.00 0.00 69 1016.6
20260507011400 40 225 0.0 0.0 0.00 0.00 0.00 68 1016.7
20260507010401 40 225 0.0 0.0 0.00 0.00 0.00 68 1016.7
20260507005358 41 225 0.0 0.0 0.00 0.00 0.00 66 1016.7
20260507004859 42 225 0.0 0.0 0.00 0.00 0.00 66 1016.7
20260507004358 42 225 0.0 0.0 0.00 0.00 0.00 67 1016.8
20260507003356 42 225 0.0 0.0 0.00 0.00 0.00 66 1016.9
20260507002856 43 225 0.0 0.0 0.00 0.00 0.00 64 1017.1
20260507002356 43 225 0.0 0.0 0.00 0.00 0.00 65 1017.2
20260507001856 43 225 0.0 0.0 0.00 0.00 0.00 65 1017.3
20260507001354 43 0 0.0 0.0 0.00 0.00 0.00 66 1017.2
20260507000852 43 0 0.0 0.0 0.00 0.00 0.00 65 1017.3
20260507000353 43 225 0.0 1.0 0.00 0.00 0.00 65 1017.4
20260506235847 43 225 0.0 2.0 0.00 0.00 0.00 65 1017.4
20260506235341 43 225 0.0 3.0 0.00 0.00 0.00 66 1017.5
20260506234835 43 225 1.0 4.0 0.00 0.00 0.00 65 1017.4
20260506234329 43 225 0.0 4.0 0.00 0.00 0.00 65 1017.4
20260506233824 43 226 0.0 1.0 0.00 0.00 0.00 66 1017.4
20260506233317 43 226 0.0 0.0 0.00 0.00 0.00 67 1017.4
20260506232306 43 225 1.0 4.0 0.00 0.00 0.00 68 1017.4
20260506231256 42 225 0.0 4.0 0.00 0.00 0.00 67 1017.4
20260506230747 43 225 0.0 4.0 0.00 0.00 0.00 67 1017.5
20260506225735 42 223 0.0 2.0 0.00 0.00 0.00 71 1017.6
20260506225229 42 223 0.0 2.0 0.00 0.00 0.00 68 1017.6
20260506224723 42 221 0.0 0.0 0.00 0.00 0.00 70 1017.6
20260506224218 42 222 0.0 2.0 0.00 0.00 0.00 71 1017.8
20260506223711 41 222 0.0 3.0 0.00 0.00 0.00 71 1017.8
20260506223205 41 221 0.0 3.0 0.00 0.00 0.00 70 1017.8
20260506222659 41 221 0.0 0.0 0.00 0.00 0.00 69 1018.0
20260506222153 42 221 0.0 0.0 0.00 0.00 0.00 68 1018.0
20260506221647 43 221 0.0 2.0 0.00 0.00 0.00 71 1018.1
20260506221141 41 221 0.0 3.0 0.00 0.00 0.00 71 1018.1
20260506220129 40 221 0.0 0.0 0.00 0.01 0.00 73 1018.2
20260506215625 40 221 0.0 4.0 0.00 0.01 0.00 72 1018.2
20260506214614 39 219 0.0 4.0 0.00 0.01 0.00 73 1018.5
20260506214105 40 217 0.0 0.0 0.00 0.01 0.00 74 1018.5
20260506213600 39 216 0.0 0.0 0.00 0.01 0.00 75 1018.5
20260506213053 39 217 0.0 0.0 0.00 0.01 0.00 76 1018.5
20260506212547 40 216 0.0 0.0 0.00 0.01 0.00 78 1018.5
20260506212041 40 216 0.0 0.0 0.00 0.01 0.00 79 1018.5
20260506211030 40 215 0.0 3.0 0.00 0.01 0.00 79 1018.6
20260506210524 40 216 0.0 3.0 0.00 0.01 0.00 80 1018.7
20260506210019 40 215 0.0 2.0 0.00 0.01 0.00 81 1018.7
20260506205511 40 215 0.0 2.0 0.00 0.01 0.00 81 1018.9
20260506205005 40 215 0.0 0.0 0.00 0.01 0.00 82 1018.9
20260506204459 40 215 0.0 1.0 0.00 0.01 0.00 82 1018.9
20260506203954 40 215 0.0 1.0 0.00 0.01 0.00 82 1019.0
20260506203447 40 215 0.0 0.0 0.00 0.01 0.00 83 1019.0
20260506202941 40 214 0.0 0.0 0.00 0.01 0.00 83 1019.2
20260506202435 40 214 0.0 1.0 0.00 0.01 0.00 83 1019.2
20260506201929 40 214 0.0 1.0 0.00 0.01 0.00 83 1019.2
20260506201424 40 215 0.0 1.0 0.00 0.01 0.00 83 1019.2
20260506200917 40 215 0.0 1.0 0.00 0.01 0.00 82 1019.2
20260506195906 40 215 0.0 1.0 0.00 0.01 0.00 82 1019.2
20260506195400 40 215 0.0 1.0 0.00 0.01 0.00 82 1019.2
20260506193841 40 215 0.0 0.0 0.00 0.01 0.00 84 1019.4
20260506193336 40 215 0.0 0.0 0.00 0.01 0.00 84 1019.5
20260506192829 40 215 0.0 0.0 0.00 0.01 0.00 84 1019.5
20260506192323 40 214 0.0 0.0 0.00 0.01 0.00 85 1019.5
20260506191817 40 214 0.0 3.0 0.00 0.01 0.00 86 1019.6
20260506191311 40 214 0.0 3.0 0.00 0.01 0.00 86 1019.6
20260506190805 40 213 1.0 3.0 0.00 0.01 0.00 87 1019.6
20260506190259 40 95 0.0 2.0 0.00 0.01 0.00 87 1019.7
20260506185248 39 96 0.0 2.0 0.00 0.01 0.00 88 1019.9
20260506184741 38 95 0.0 1.0 0.00 0.01 0.00 89 1019.9
20260506184235 38 95 0.0 1.0 0.00 0.01 0.00 89 1020.0
20260506183728 38 96 0.0 1.0 0.00 0.01 0.00 89 1020.0
20260506183224 37 98 0.0 1.0 0.00 0.01 0.00 89 1020.0
20260506182718 37 0 0.0 1.0 0.00 0.01 0.00 89 1020.1
20260506181707 37 0 0.0 1.0 0.00 0.01 0.00 90 1020.1
20260506181200 37 98 0.0 0.0 0.00 0.01 0.00 90 1020.1
20260506180654 37 98 0.0 1.0 0.00 0.01 0.00 91 1020.0
20260506180148 37 0 0.0 2.0 0.00 0.01 0.00 91 1020.0
20260506175642 36 0 0.0 2.0 0.00 0.01 0.00 91 1020.0
20260506175136 36 95 0.0 1.0 0.00 0.01 0.00 91 1020.0
20260506174630 35 95 0.0 2.0 0.00 0.01 0.00 91 1019.9
20260506174126 35 95 0.0 2.0 0.00 0.01 0.00 91 1020.0
20260506173626 35 95 0.0 2.0 0.00 0.01 0.00 91 1020.0
20260506173123 34 95 1.0 3.0 0.00 0.01 0.00 91 1020.0
20260506172624 34 95 1.0 3.0 0.00 0.01 0.00 91 1020.0
20260506172123 34 96 1.0 6.0 0.00 0.01 0.00 91 1019.9
20260506171623 33 96 1.0 6.0 0.00 0.02 0.00 91 1019.9
20260506171119 33 78 1.0 6.0 0.00 0.02 0.00 91 1019.9
20260506170619 33 81 1.0 5.0 0.00 0.02 0.00 91 1019.7
20260506170119 33 86 1.0 9.0 0.00 0.02 0.00 91 1019.7
20260506165620 33 78 2.0 9.0 0.00 0.02 0.00 91 1019.6
20260506165119 33 256 1.0 7.0 0.00 0.02 0.00 91 1019.6
20260506164620 33 92 1.0 8.0 0.00 0.02 0.00 91 1019.5
20260506164117 33 87 1.0 6.0 0.00 0.02 0.00 92 1019.4
20260506163615 33 126 2.0 8.0 0.00 0.02 0.00 91 1019.2
20260506163115 33 67 2.0 8.0 0.00 0.02 0.00 91 1018.9
20260506162616 33 94 2.0 8.0 0.00 0.02 0.00 91 1019.2
20260506162115 33 91 1.0 8.0 0.00 0.02 0.00 91 1019.0
20260506161615 34 53 0.0 4.0 0.00 0.02 0.00 91 1018.9
20260506161116 34 333 0.0 0.0 0.00 0.02 0.00 92 1018.8
20260506160616 34 332 0.0 1.0 0.00 0.02 0.00 92 1018.6
20260506160117 34 336 0.0 2.0 0.00 0.02 0.00 92 1018.6
20260506155111 34 335 0.0 2.0 0.00 0.02 0.00 92 1018.8
20260506154612 33 335 0.0 3.0 0.00 0.02 0.00 91 1018.8
20260506154112 33 335 0.0 4.0 0.00 0.02 0.00 91 1018.7
20260506153612 33 334 0.0 4.0 0.00 0.02 0.00 92 1018.7
20260506152611 33 334 0.0 3.0 0.00 0.02 0.00 92 1018.6
20260506152111 33 334 0.0 2.0 0.00 0.02 0.00 92 1018.5
20260506151612 33 333 0.0 2.0 0.00 0.02 0.00 92 1018.5
20260506150600 33 333 0.0 5.0 0.00 0.02 0.00 92 1018.2
20260506150054 33 334 0.0 5.0 0.00 0.02 0.00 92 1018.2
20260506145548 33 334 0.0 3.0 0.00 0.02 0.00 92 1018.2
20260506145041 33 333 0.0 3.0 0.00 0.02 0.00 92 1018.2
20260506144532 33 333 0.0 3.0 0.00 0.02 0.00 92 1018.2
20260506144026 33 334 0.0 2.0 0.00 0.02 0.00 92 1018.2
20260506143520 33 334 0.0 2.0 0.00 0.02 0.00 92 1018.1
20260506143014 32 334 0.0 2.0 0.00 0.02 0.00 92 1018.0
20260506142509 32 334 0.0 2.0 0.00 0.02 0.00 92 1018.0
20260506142003 32 334 0.0 4.0 0.00 0.02 0.00 92 1018.0
20260506141458 32 334 0.0 4.0 0.00 0.02 0.00 92 1018.0
20260506140952 32 334 0.0 2.0 0.00 0.02 0.00 92 1018.0
20260506135938 32 334 0.0 0.0 0.00 0.02 0.00 92 1018.0
20260506135433 32 334 0.0 0.0 0.00 0.02 0.00 92 1018.0
20260506134933 32 334 0.0 0.0 0.00 0.02 0.00 92 1017.9
20260506134433 32 334 0.0 0.0 0.00 0.02 0.00 92 1017.9
20260506133931 32 334 0.0 0.0 0.00 0.02 0.00 92 1017.8
20260506133429 33 334 0.0 0.0 0.00 0.02 0.00 91 1017.8
20260506132927 33 333 0.0 0.0 0.00 0.02 0.00 91 1017.6
20260506132427 33 334 0.0 0.0 0.00 0.02 0.00 91 1017.5
20260506131927 33 333 0.0 0.0 0.00 0.02 0.00 91 1017.4
20260506130924 32 333 0.0 0.0 0.00 0.02 0.00 92 1017.2
20260506130421 32 333 0.0 0.0 0.00 0.02 0.00 92 1017.1
20260506125919 32 333 0.0 0.0 0.00 0.02 0.00 92 1016.9
20260506125419 32 333 0.0 0.0 0.00 0.02 0.00 91 1016.9
20260506124919 32 333 0.0 0.0 0.00 0.02 0.00 92 1016.7
20260506124420 32 333 0.0 0.0 0.00 0.02 0.00 91 1016.7
20260506123919 32 333 0.0 0.0 0.00 0.02 0.00 92 1016.7
20260506123417 32 333 0.0 0.0 0.00 0.02 0.00 92 1016.7
20260506122915 32 333 0.0 0.0 0.00 0.02 0.00 91 1016.7
20260506122413 32 333 0.0 0.0 0.00 0.02 0.00 92 1016.9
20260506121913 32 333 0.0 0.0 0.00 0.02 0.00 91 1016.8
20260506121408 32 333 0.0 0.0 0.00 0.02 0.00 92 1016.6
20260506120902 32 333 0.0 0.0 0.00 0.02 0.00 91 1016.6
20260506120355 32 333 0.0 0.0 0.00 0.02 0.00 91 1016.6
20260506115849 32 333 0.0 0.0 0.00 0.02 0.00 91 1016.6
20260506115343 32 333 0.0 0.0 0.00 0.02 0.00 91 1016.5
20260506114836 32 333 0.0 0.0 0.00 0.02 0.00 91 1016.5
20260506114331 32 333 0.0 0.0 0.00 0.02 0.00 91 1016.5
20260506113826 32 333 0.0 0.0 0.00 0.02 0.00 91 1016.5
20260506112813 32 333 0.0 0.0 0.00 0.02 0.00 91 1016.4
20260506112307 32 333 0.0 0.0 0.00 0.02 0.00 91 1016.2
20260506111800 32 333 0.0 0.0 0.00 0.02 0.00 91 1016.1
20260506111255 32 333 0.0 0.0 0.00 0.02 0.00 91 1016.2
20260506110749 32 333 0.0 0.0 0.00 0.02 0.00 91 1016.1
20260506110242 32 333 0.0 0.0 0.00 0.02 0.00 91 1016.0
20260506105738 32 333 0.0 0.0 0.00 0.02 0.00 91 1015.9
20260506105231 32 333 0.0 0.0 0.00 0.02 0.00 91 1015.9
20260506104724 32 333 0.0 0.0 0.00 0.02 0.00 91 1015.9
20260506104218 32 333 0.0 0.0 0.00 0.02 0.00 91 1015.9
20260506103712 32 333 0.0 0.0 0.00 0.02 0.00 91 1015.9
20260506103207 32 333 0.0 0.0 0.00 0.02 0.00 91 1015.9
20260506102155 32 333 0.0 0.0 0.00 0.02 0.00 91 1016.1
20260506101143 32 333 0.0 0.0 0.00 0.02 0.00 91 1016.1
20260506100637 32 333 0.0 0.0 0.00 0.02 0.00 91 1016.1
20260506095626 32 333 0.0 0.0 0.00 0.02 0.00 91 1016.2
20260506095119 32 333 0.0 0.0 0.00 0.02 0.00 91 1016.0
20260506094614 32 333 0.0 0.0 0.00 0.02 0.00 91 1016.0
20260506093613 32 333 0.0 0.0 0.00 0.02 0.00 91 1015.9
20260506093056 32 333 0.0 0.0 0.00 0.02 0.00 91 1015.9
20260506092549 32 333 0.0 0.0 0.00 0.02 0.00 91 1015.9
20260506092042 32 333 0.0 0.0 0.00 0.02 0.00 91 1015.9